Location: The Jewett Observatory
(46.7288°N, 117.1525°W)
Time: 08:12:11
(UTC-07:00)

Amateur Radio Satellites - All Passes

Search period start: 24 May 2015 07:42
Search period end: 25 May 2015 07:42
Location: The Jewett Observatory, 46.7288°N, 117.1525°W

Satellite Date Start Highest point End Downlink Frequencies (MHz)
Time Altitude Azimuth
Cosmos 2491 24 May 07:52:19 08:00:54 56° 269° (W) 08:09:22 435.465 / 435.565
AO-7 24 May 08:01:56 08:06:52 17° 319° (NW) 08:11:31 29.400- 29.500
DOVE 4 24 May 08:04:42 08:05:50 11° 81° (E) 08:07:16 437.250
BRITE-PL 24 May 08:05:34 08:10:24 29° 91° (E) 08:15:11 437.365/2234.400
CUTE-I 24 May 08:07:11 08:12:15 43° 292° (WNW) 08:17:17 437.470
HO-68 24 May 08:08:33 08:12:51 17° 86° (E) 08:17:30 435.675
PHONESAT 2.4 24 May 08:09:44 08:12:33 23° 193° (SSW) 08:15:22 2401.200-2431.200
CANX-2 24 May 08:15:51 08:17:03 11° 86° (E) 08:18:30 2200.000
CUTE 1.7 + AOD 2 24 May 08:19:54 08:21:06 11° 86° (E) 08:22:32 437.475
GOMX 1 24 May 08:24:11 08:28:41 26° 90° (E) 08:33:08 467.674
Cubesat XI-IV 24 May 08:27:07 08:31:48 31° 296° (WNW) 08:36:24 437.490
AIST 1 24 May 08:30:01 08:34:22 66° 264° (W) 08:38:43
SEEDS 24 May 08:46:05 08:48:53 18° 90° (E) 08:51:49 437.485
YUBILEINY 24 May 08:47:43 08:56:27 66° 284° (WNW) 09:05:10 435.215
COMPASS 1 24 May 09:03:59 09:07:13 22° 92° (E) 09:10:30 437.405
PCSat 24 May 09:13:48 09:18:19 26° 40° (NE) 09:22:54 145.827
ANTELSAT 24 May 09:14:52 09:18:02 19° 63° (ENE) 09:21:19 437.575/2403.000
CUBEBUG 2 24 May 09:17:05 09:18:51 12° 85° (E) 09:20:50 437.445
AAUSAT CUBESAT 2 24 May 09:18:34 09:22:05 27° 94° (E) 09:25:38 437.432
RS-15 24 May 09:28:55 09:39:19 56° 115° (ESE) 09:50:07 29.354- 29.394
ZACube-1 24 May 09:32:43 09:33:44 11° 85° (E) 09:35:00 437.345
DOVE 4 24 May 09:39:21 09:44:37 79° 101° (E) 09:49:38 437.250
CINEMA 3 24 May 09:39:56 09:44:31 41° 96° (E) 09:48:54 145.822/145.860
BRITE-PL 24 May 09:43:38 09:49:09 49° 290° (WNW) 09:54:28 437.365/2234.400
NANOSAT C BR1 24 May 09:43:55 09:46:23 16° 62° (ENE) 09:49:01 145.865
TIGRISAT 24 May 09:47:54 09:52:07 35° 68° (ENE) 09:56:22 435.000
QB50P2 24 May 09:49:13 09:52:04 18° 63° (ENE) 09:55:03 145.880/145.840
CANX-2 24 May 09:49:22 09:53:36 75° 286° (WNW) 09:57:48 2200.000
Oscar 11 24 May 09:50:08 09:53:50 28° 94° (E) 09:57:35 145.826/435.025
CUTE 1.7 + AOD 2 24 May 09:53:25 09:57:38 75° 285° (WNW) 10:01:50 437.475
Cosmos 2491 24 May 09:53:35 09:55:55 11° 290° (WNW) 09:57:34 435.465 / 435.565
HO-68 24 May 09:54:32 10:01:46 86° 106° (ESE) 10:08:56 435.675
Cosmos 2504 24 May 10:01:34 10:09:25 48° 90° (E) 10:16:51 435.465 / 435.565
POPSAT HIP 1 24 May 10:01:43 10:05:02 23° 65° (ENE) 10:08:28 437.405
GOMX 1 24 May 10:01:47 10:07:04 49° 290° (WNW) 10:12:07 467.674
DELFI C3 24 May 10:06:02 10:09:34 29° 95° (E) 10:13:07 145.870
DUCHIFAT 1 24 May 10:06:03 10:09:28 24° 66° (ENE) 10:12:59 145.980
UNISAT 6 24 May 10:06:36 10:11:09 53° 72° (ENE) 10:15:43 437.425
UWE-3 24 May 10:09:12 10:13:14 33° 95° (E) 10:17:10 435.000/436.395/437.385
SEEDS 24 May 10:20:58 10:24:59 46° 289° (WNW) 10:28:58 437.485
FUNcube-1 24 May 10:27:19 10:31:26 39° 97° (E) 10:35:27 145.935
SO-50 24 May 10:28:10 10:31:18 17° 26° (NNE) 10:34:31 436.795
COMPASS 1 24 May 10:39:11 10:43:02 36° 290° (WNW) 10:46:50 437.405
BUGSAT 1 24 May 10:42:11 10:46:00 38° 69° (ENE) 10:49:56 437.445
QB50P1 24 May 10:45:04 10:49:16 60° 73° (ENE) 10:53:33 145.935-145.965
POLYITAN 1 24 May 10:45:20 10:49:35 62° 73° (ENE) 10:53:52 437.675
ANTELSAT 24 May 10:49:46 10:54:26 60° 259° (W) 10:59:04 437.575/2403.000
YUBILEINY 24 May 10:50:09 10:55:28 16° 309° (NW) 11:00:22 435.215
CUBEBUG 2 24 May 10:51:40 10:56:15 76° 285° (WNW) 11:00:37 437.445
AAUSAT CUBESAT 2 24 May 10:54:04 10:57:43 30° 292° (WNW) 11:01:18 437.432
PCSat 24 May 10:56:51 11:02:15 68° 241° (WSW) 11:07:37 145.827
ZACube-1 24 May 11:06:25 11:10:51 81° 285° (WNW) 11:15:07 437.345
ESTCUBE 1 24 May 11:13:13 11:16:27 19° 91° (E) 11:19:47 437.505/2401.250
UKube-1 24 May 11:14:26 11:18:44 55° 100° (E) 11:23:01 .
CINEMA 3 24 May 11:17:28 11:21:31 26° 295° (WNW) 11:25:21 145.822/145.860
NANOSAT C BR1 24 May 11:17:33 11:21:47 63° 259° (WSW) 11:26:04 145.865
DOVE 4 24 May 11:18:20 11:21:44 17° 301° (WNW) 11:24:53 437.250
DX 1 24 May 11:18:44 11:23:08 66° 102° (ESE) 11:27:30 434.975-435.025
VELOX 1 24 May 11:21:28 11:25:37 36° 97° (E) 11:29:47 145.980
QB50P2 24 May 11:23:24 11:27:37 53° 260° (W) 11:31:51 145.880/145.840
TIGRISAT 24 May 11:24:45 11:28:54 29° 266° (W) 11:32:58 435.000
HUMSAT D 24 May 11:24:45 11:28:59 76° 103° (ESE) 11:33:07 437.325/437.525
Oscar 11 24 May 11:26:13 11:30:02 31° 292° (WNW) 11:33:48 145.826/435.025
50 SAT 24 May 11:27:08 11:30:54 45° 99° (E) 11:34:38 437.505
CUBEBUG 1 24 May 11:28:36 11:32:09 24° 92° (E) 11:35:48 437.445
POPSAT HIP 1 24 May 11:36:39 11:40:43 40° 263° (W) 11:44:47 437.405
DUCHIFAT 1 24 May 11:41:09 11:45:07 37° 263° (W) 11:49:07 145.980
RS-15 24 May 11:41:13 11:51:55 55° 321° (NW) 12:03:00 29.354- 29.394
DELFI C3 24 May 11:41:14 11:44:37 26° 293° (WNW) 11:47:57 145.870
HO-68 24 May 11:43:18 11:48:46 24° 306° (NW) 11:54:02 435.675
UNISAT 6 24 May 11:44:50 11:48:16 19° 270° (W) 11:51:34 437.425
UWE-3 24 May 11:45:51 11:49:42 28° 294° (WNW) 11:53:22 435.000/436.395/437.385
AISAT 24 May 11:51:48 11:56:20 76° 103° (ESE) 12:00:50 437.250
CUSAT 1 24 May 11:52:51 11:57:12 17° 77° (ENE) 12:02:13 437.405
Cosmos 2504 24 May 11:55:10 12:02:59 41° 290° (WNW) 12:10:15 435.465 / 435.565
FUNcube-1 24 May 12:04:02 12:07:35 23° 295° (WNW) 12:10:57 145.935
SO-50 24 May 12:07:59 12:12:55 58° 48° (NE) 12:17:47 436.795
BUGSAT 1 24 May 12:18:23 12:21:38 22° 268° (W) 12:24:52 437.445
SPROUT 24 May 12:18:50 12:22:17 23° 92° (E) 12:25:46 437.525
QB50P1 24 May 12:23:05 12:25:36 15° 272° (W) 12:27:57 145.935-145.965
POLYITAN 1 24 May 12:23:29 12:25:58 14° 272° (W) 12:28:17 437.675
CUBEBUG 2 24 May 12:31:12 12:32:09 10° 303° (WNW) 12:32:52 437.445
Oscar 19 24 May 12:33:21 12:38:00 35° 66° (ENE) 12:42:45 437.125/150
DANDE 24 May 12:42:13 12:48:07 30° 83° (E) 12:55:04 436.750
ITAMSAT 1 24 May 12:43:08 12:46:02 16° 57° (ENE) 12:49:07 435.822/435.867
ZACube-1 24 May 12:45:26 12:46:29 11° 302° (WNW) 12:47:18 437.345
ESTCUBE 1 24 May 12:49:14 12:53:38 49° 289° (WNW) 12:58:00 437.505/2401.250
UKube-1 24 May 12:51:30 12:54:31 18° 298° (WNW) 12:57:24 .
TISAT 1 24 May 12:53:10 12:57:09 37° 97° (E) 13:01:08 437.305
DX 1 24 May 12:56:11 12:58:55 16° 299° (WNW) 13:01:30 434.975-435.025
VELOX 1 24 May 12:58:16 13:02:03 27° 295° (WNW) 13:05:45 145.980
HUMSAT D 24 May 13:02:14 13:04:12 13° 300° (WNW) 13:05:58 437.325/437.525
50 SAT 24 May 13:02:41 13:05:20 17° 296° (WNW) 13:07:50 437.505
Gurwin Techsat 1B 24 May 13:02:59 13:06:51 21° 61° (ENE) 13:10:50 435.225
CUBEBUG 1 24 May 13:04:31 13:08:40 39° 291° (WNW) 13:12:48 437.445
GONETS M04 24 May 13:15:54 13:24:19 53° 90° (E) 13:32:51
AO-7 24 May 13:28:18 13:33:28 19° 44° (NE) 13:38:55 29.400- 29.500
AISAT 24 May 13:29:52 13:32:23 15° 300° (WNW) 13:34:45 437.250
CUSAT 1 24 May 13:31:19 13:38:32 75° 97° (E) 13:46:52 437.405
JAS-2 24 May 13:34:21 13:35:54 11° 53° (NE) 13:37:43 435.910
SO-50 24 May 13:49:10 13:53:09 24° 246° (WSW) 13:56:59 436.795
SPROUT 24 May 13:54:27 13:58:31 38° 290° (WNW) 14:02:31 437.525
RS-15 24 May 13:57:50 14:07:29 32° 354° (N) 14:17:27 29.354- 29.394
ITUPSAT 1 24 May 13:59:33 14:03:47 31° 95° (E) 14:08:03 437.325
BEESAT 24 May 14:08:58 14:13:26 38° 97° (E) 14:17:53 436.000
Oscar 19 24 May 14:12:38 14:17:23 34° 264° (W) 14:22:06 437.125/150
SWISSCUBE 24 May 14:16:53 14:21:32 49° 99° (E) 14:26:11 437.505
ITAMSAT 1 24 May 14:19:43 14:24:54 88° 255° (WSW) 14:30:08 435.822/435.867
DANDE 24 May 14:23:37 14:30:40 68° 285° (WNW) 14:39:08 436.750
TISAT 1 24 May 14:29:17 14:32:47 24° 294° (WNW) 14:36:11 437.305
Cosmos 2499 24 May 14:39:38 14:46:36 34° 87° (E) 14:53:17 435.465 / 435.565
Gurwin Techsat 1B 24 May 14:41:09 14:46:25 64° 258° (WSW) 14:51:43 435.225
HORYU 2 24 May 14:51:21 14:55:20 33° 68° (ENE) 14:59:23 437.375
KKS-1 24 May 14:58:22 15:01:56 23° 92° (E) 15:05:34 437.445
GONETS M04 24 May 15:13:17 15:21:31 40° 293° (WNW) 15:29:41
JAS-2 24 May 15:13:34 15:20:07 57° 71° (ENE) 15:25:56 435.910
CUSAT 1 24 May 15:15:38 15:22:11 30° 300° (WNW) 15:29:09 437.405
AO-7 24 May 15:16:43 15:24:52 65° 65° (ENE) 15:33:06 29.400- 29.500
O/OREOS (USA 219) 24 May 15:22:32 15:25:08 16° 101° (E) 15:27:53 437.305
ITUPSAT 1 24 May 15:37:23 15:41:42 34° 293° (WNW) 15:45:59 437.325
BEESAT 24 May 15:47:04 15:51:09 28° 295° (WNW) 15:55:09 436.000
SWISSCUBE 24 May 15:55:23 15:59:07 23° 297° (WNW) 16:02:46 437.505
ITAMSAT 1 24 May 16:03:04 16:05:18 12° 275° (W) 16:07:14 435.822/435.867
STARS 24 May 16:08:49 16:13:17 75° 103° (ESE) 16:17:42 437.465
MOZHAYETS 4 24 May 16:09:09 16:10:34 11° 85° (E) 16:12:14
DANDE 24 May 16:10:39 16:15:54 19° 310° (NW) 16:21:15 436.750
RS-15 24 May 16:13:13 16:23:45 41° 27° (NNE) 16:34:48 29.354- 29.394
CUTE-I 24 May 16:16:47 16:18:03 11° 53° (NE) 16:19:33 437.470
HORYU 2 24 May 16:28:05 16:32:00 29° 265° (W) 16:35:55 437.375
Cosmos 2499 24 May 16:31:32 16:39:31 55° 285° (WNW) 16:46:55 435.465 / 435.565
KKS-1 24 May 16:34:31 16:38:45 40° 291° (WNW) 16:42:55 437.445
Cubesat XI-IV 24 May 16:34:34 16:37:32 16° 57° (ENE) 16:40:42 437.490
YUBILEINY 24 May 16:58:45 17:04:12 18° 53° (NE) 17:09:59 435.215
O/OREOS (USA 219) 24 May 16:59:37 17:04:07 63° 298° (WNW) 17:08:36 437.305
JAS-2 24 May 16:59:50 17:05:31 28° 267° (W) 17:10:34 435.910
AO-7 24 May 17:10:59 17:18:17 32° 266° (W) 17:25:29 29.400- 29.500
MOZHAYETS 4 24 May 17:43:55 17:48:31 83° 285° (WNW) 17:53:05
STARS 24 May 17:46:45 17:49:13 14° 300° (WNW) 17:51:30 437.465
CUTE-I 24 May 17:51:58 17:57:10 62° 71° (ENE) 18:02:28 437.470
BEESAT 2 24 May 17:56:05 17:57:22 11° 110° (ESE) 17:58:52 435.950
Cubesat XI-IV 24 May 18:11:38 18:16:58 89° 88° (E) 18:22:21 437.490
RS-15 24 May 18:26:08 18:37:45 89° 234° (SW) 18:49:52 29.354- 29.394
Cosmos 2499 24 May 18:31:55 18:34:44 12° 310° (NW) 18:37:03 435.465 / 435.565
PRISM 24 May 18:34:54 18:36:37 13° 88° (E) 18:38:33 437.425
HO-68 24 May 18:40:56 18:45:52 21° 52° (NE) 18:51:00 435.675
O/OREOS (USA 219) 24 May 18:43:19 18:44:34 11° 320° (NW) 18:45:37 437.305
BEESAT 3 24 May 18:45:48 18:49:39 42° 120° (ESE) 18:53:35 437.485
YUBILEINY 24 May 18:54:14 19:02:58 74° 78° (ENE) 19:11:40 435.215
Cosmos 2491 24 May 19:00:44 19:08:31 38° 86° (E) 19:16:29 435.465 / 435.565
AIST 2 24 May 19:05:30 19:08:25 19° 113° (ESE) 19:11:27 435.215
CANX-2 24 May 19:11:36 19:13:38 14° 61° (ENE) 19:15:49 2200.000
DOVE 4 24 May 19:11:45 19:15:00 17° 59° (ENE) 19:18:27 437.250
CUBESAT XI-V 24 May 19:15:14 19:19:56 75° 102° (ESE) 19:24:39 437.345
CUTE 1.7 + AOD 2 24 May 19:15:34 19:17:35 13° 61° (ENE) 19:19:46 437.475
BRITE-PL 24 May 19:18:49 19:23:30 39° 68° (ENE) 19:28:35 437.365/2234.400
MOZHAYETS 4 24 May 19:23:25 19:25:04 12° 302° (WNW) 19:26:32
BEESAT 2 24 May 19:30:45 19:34:53 86° 303° (WNW) 19:39:04 435.950
STRAND 1 24 May 19:31:28 19:36:23 44° 98° (E) 19:41:19 437.568
CUTE-I 24 May 19:33:51 19:37:46 20° 270° (W) 19:41:33 437.470
GOMX 1 24 May 19:34:32 19:39:11 36° 67° (ENE) 19:44:09 467.674
SEEDS 24 May 19:41:07 19:44:06 20° 65° (ENE) 19:47:12 437.485
Cosmos 2504 24 May 19:51:21 19:56:03 18° 57° (ENE) 20:00:58 435.465 / 435.565
Cubesat XI-IV 24 May 19:55:18 19:57:57 13° 275° (W) 20:00:18 437.490
COMPASS 1 24 May 19:58:08 20:01:25 23° 66° (ENE) 20:04:46 437.405
PRISM 24 May 20:08:28 20:12:35 66° 287° (WNW) 20:16:42 437.425
AAUSAT CUBESAT 2 24 May 20:12:12 20:15:43 27° 68° (ENE) 20:19:17 437.432
CUBEBUG 2 24 May 20:17:28 20:20:33 18° 62° (ENE) 20:23:47 437.445
BEESAT 3 24 May 20:24:14 20:27:48 27° 319° (NW) 20:31:20 437.485
HO-68 24 May 20:25:31 20:32:43 84° 72° (ENE) 20:39:57 435.675
ZACube-1 24 May 20:30:45 20:33:20 15° 61° (ENE) 20:36:03 437.345
M-CUBED/EXP-1 PRIME 24 May 20:35:48 20:39:10 85° 292° (WNW) 20:42:28 437.505
RS-15 24 May 20:39:41 20:49:00 28° 256° (WSW) 20:58:06 29.354- 29.394
AIST 2 24 May 20:42:25 20:46:38 58° 311° (NW) 20:50:53 435.215
CINEMA 3 24 May 20:43:41 20:48:32 53° 71° (ENE) 20:53:27 145.822/145.860
DX 1 24 May 20:44:38 20:45:40 11° 57° (ENE) 20:46:55 434.975-435.025
CANX-2 24 May 20:44:47 20:49:04 74° 259° (W) 20:53:20 2200.000
AUBIESAT-1 24 May 20:46:25 20:49:46 73° 290° (WNW) 20:53:02 437.475
DOVE 4 24 May 20:46:59 20:52:06 80° 257° (WSW) 20:57:27 437.250
Oscar 11 24 May 20:47:37 20:51:27 32° 68° (ENE) 20:55:20 145.826/435.025
CUTE 1.7 + AOD 2 24 May 20:48:44 20:53:00 74° 258° (WSW) 20:57:16 437.475
YUBILEINY 24 May 20:52:05 20:59:05 27° 279° (W) 21:05:46 435.215
CUBESAT XI-V 24 May 20:54:03 20:56:52 16° 299° (WNW) 20:59:32 437.345
DELFI C3 24 May 20:56:17 20:59:41 27° 68° (ENE) 21:03:09 145.870
Cosmos 2491 24 May 20:56:33 21:05:10 55° 287° (WNW) 21:13:49 435.465 / 435.565
BRITE-PL 24 May 20:57:33 21:02:06 32° 268° (W) 21:06:55 437.365/2234.400
AIST 1 24 May 21:02:12 21:06:23 62° 96° (E) 21:10:39
UWE-3 24 May 21:08:36 21:12:58 40° 70° (ENE) 21:17:21 435.000/436.395/437.385
BEESAT 2 24 May 21:10:52 21:13:37 17° 328° (NNW) 21:16:18 435.950
STRAND 1 24 May 21:11:03 21:15:25 28° 296° (WNW) 21:19:41 437.568
GOMX 1 24 May 21:12:38 21:17:19 35° 266° (W) 21:22:13 467.674
SEEDS 24 May 21:15:33 21:19:38 46° 261° (W) 21:23:43 437.485
AISAT 24 May 21:18:42 21:20:39 13° 59° (ENE) 21:22:48 437.250
FUNcube-1 24 May 21:25:20 21:29:43 45° 71° (ENE) 21:34:06 145.935
COMPASS 1 24 May 21:33:01 21:36:56 37° 263° (W) 21:40:49 437.405
Cosmos 2504 24 May 21:43:27 21:50:47 88° 82° (E) 21:57:59 435.465 / 435.565
AAUSAT CUBESAT 2 24 May 21:47:33 21:51:16 30° 265° (W) 21:54:57 437.432
CUBEBUG 2 24 May 21:52:02 21:56:46 67° 258° (WSW) 22:01:33 437.445
ZACube-1 24 May 22:04:34 22:09:11 74° 259° (WSW) 22:13:47 437.345
UKube-1 24 May 22:11:49 22:16:07 68° 73° (ENE) 22:20:27 .
50 SAT 24 May 22:14:23 22:18:07 39° 71° (ENE) 22:21:53 437.505
ESTCUBE 1 24 May 22:15:39 22:19:18 26° 65° (ENE) 22:23:02 437.505/2401.250
HO-68 24 May 22:16:09 22:21:25 21° 272° (W) 22:26:24 435.675
DX 1 24 May 22:16:53 22:21:14 82° 75° (ENE) 22:25:39 434.975-435.025
HUMSAT D 24 May 22:18:51 22:23:11 77° 75° (ENE) 22:27:30 437.325/437.525
VELOX 1 24 May 22:21:41 22:25:55 46° 70° (ENE) 22:30:13 145.980
CINEMA 3 24 May 22:22:10 22:26:03 22° 270° (W) 22:29:52 145.822/145.860
AIST 2 24 May 22:23:51 22:26:08 14° 332° (NNW) 22:28:20 435.215
Oscar 11 24 May 22:23:54 22:27:40 28° 266° (W) 22:31:22 145.826/435.025
CUSAT 1 24 May 22:26:27 22:31:10 17° 49° (NE) 22:35:41 437.405
CUBEBUG 1 24 May 22:27:32 22:31:14 28° 67° (ENE) 22:35:02 437.445
DOVE 4 24 May 22:29:02 22:30:52 11° 278° (W) 22:32:23 437.250
DELFI C3 24 May 22:31:15 22:34:46 28° 265° (W) 22:38:16 145.870
ANTELSAT 24 May 22:39:42 22:43:10 23° 92° (E) 22:46:39 437.575/2403.000
AIST 1 24 May 22:42:12 22:44:35 14° 296° (WNW) 22:46:49
UWE-3 24 May 22:45:42 22:49:37 25° 268° (W) 22:53:29 435.000/436.395/437.385
AISAT 24 May 22:52:11 22:56:38 85° 256° (WSW) 23:01:09 437.250
Cosmos 2491 24 May 23:00:36 23:04:44 13° 314° (NW) 23:08:24 435.465 / 435.565
NANOSAT C BR1 24 May 23:00:36 23:03:24 17° 90° (E) 23:06:20 145.865
FUNcube-1 24 May 23:02:40 23:06:16 22° 269° (W) 23:09:46 145.935
QB50P2 24 May 23:06:32 23:09:43 20° 91° (E) 23:12:59 145.880/145.840
TIGRISAT 24 May 23:13:10 23:17:28 47° 99° (E) 23:21:39 435.000
SPROUT 24 May 23:15:47 23:19:22 26° 66° (ENE) 23:23:01 437.525
POPSAT HIP 1 24 May 23:19:07 23:22:45 26° 94° (E) 23:26:24 437.405
DANDE 24 May 23:20:15 23:27:26 32° 60° (ENE) 23:33:43 436.750
GONETS M04 24 May 23:22:35 23:30:07 31° 63° (ENE) 23:37:45
DUCHIFAT 1 24 May 23:23:00 23:26:42 28° 94° (E) 23:30:25 145.980
UNISAT 6 24 May 23:32:27 23:36:55 78° 102° (ESE) 23:41:15 437.425
Cosmos 2504 24 May 23:38:37 23:43:13 18° 281° (W) 23:47:26 435.465 / 435.565
TISAT 1 24 May 23:47:56 23:51:54 40° 70° (ENE) 23:55:57 437.305
50 SAT 24 May 23:50:03 23:53:01 19° 268° (W) 23:55:54 437.505
UKube-1 24 May 23:50:35 23:52:47 13° 272° (W) 23:54:48 .
ESTCUBE 1 24 May 23:51:51 23:56:02 37° 263° (W) 00:00:13 437.505/2401.250
SWISSCUBE 24 May 23:52:11 23:53:46 12° 57° (ENE) 23:55:33 437.505
BUGSAT 1 24 May 23:56:36 00:00:43 44° 99° (E) 00:04:49 437.445
DX 1 24 May 23:56:49 23:58:10 11° 274° (W) 23:59:18 434.975-435.025
HUMSAT D 24 May 23:57:53 23:59:32 12° 274° (W) 00:00:58 437.325/437.525
VELOX 1 24 May 23:59:25 00:02:46 20° 269° (W) 00:06:00 145.980
QB50P1 25 May 00:03:01 00:07:21 77° 103° (ESE) 00:11:37 145.935-145.965
CUBEBUG 1 25 May 00:03:37 00:07:32 32° 265° (W) 00:11:29 437.445
POLYITAN 1 25 May 00:03:42 00:08:01 79° 103° (ESE) 00:12:17 437.675
CUSAT 1 25 May 00:07:57 00:15:44 71° 75° (ENE) 00:21:55 437.405
ANTELSAT 25 May 00:15:59 00:20:08 39° 291° (WNW) 00:24:10 437.575/2403.000
Cosmos 2499 25 May 00:28:19 00:30:54 12° 51° (NE) 00:33:51 435.465 / 435.565
NANOSAT C BR1 25 May 00:35:25 00:39:35 50° 289° (WNW) 00:43:43 145.865
QB50P2 25 May 00:41:45 00:45:50 42° 290° (WNW) 00:49:52 145.880/145.840
TIGRISAT 25 May 00:50:36 00:53:54 20° 297° (WNW) 00:57:04 435.000
SPROUT 25 May 00:51:22 00:55:20 34° 264° (W) 00:59:19 437.525
POPSAT HIP 1 25 May 00:54:47 00:58:40 33° 292° (WNW) 01:02:28 437.405
DUCHIFAT 1 25 May 00:58:43 01:02:31 30° 292° (WNW) 01:06:14 145.980
DANDE 25 May 01:03:16 01:11:27 66° 265° (W) 01:18:06 436.750
ISS 25 May 01:05:07 01:08:17 55° 148° (SSE) 01:11:30 145.825
ITUPSAT 1 25 May 01:09:02 01:13:36 49° 70° (ENE) 01:18:13 437.325
UNISAT 6 25 May 01:10:51 01:13:08 14° 300° (WNW) 01:15:14 437.425
BEESAT 25 May 01:18:06 01:22:47 61° 72° (ENE) 01:27:30 436.000
GONETS M04 25 May 01:19:04 01:27:49 69° 266° (W) 01:36:25
TISAT 1 25 May 01:24:35 01:27:53 21° 268° (W) 01:31:07 437.305
BEESAT 3 25 May 01:24:50 01:27:03 14° 30° (NNE) 01:29:19 437.485
SWISSCUBE 25 May 01:26:09 01:30:54 78° 73° (ENE) 01:35:40 437.505
O/OREOS (USA 219) 25 May 01:27:34 01:31:55 49° 60° (ENE) 01:36:16 437.305
BUGSAT 1 25 May 01:32:41 01:35:55 21° 296° (WNW) 01:39:03 437.445
STARS 25 May 01:35:00 01:36:50 13° 59° (ENE) 01:38:52 437.465
QB50P1 25 May 01:40:31 01:42:40 13° 300° (WNW) 01:44:39 145.935-145.965
PCSat 25 May 01:40:58 01:46:18 63° 119° (ESE) 01:51:42 145.827
POLYITAN 1 25 May 01:41:18 01:43:22 13° 300° (WNW) 01:45:16 437.675
CUSAT 1 25 May 01:51:42 01:57:34 25° 279° (W) 02:02:24 437.405
KKS-1 25 May 01:59:10 02:03:05 31° 67° (ENE) 02:07:04 437.445
BEESAT 2 25 May 02:09:56 02:13:15 23° 38° (NE) 02:16:34 435.950
Cosmos 2499 25 May 02:18:54 02:25:57 63° 77° (ENE) 02:32:59 435.465 / 435.565
Oscar 19 25 May 02:20:36 02:25:47 68° 102° (ESE) 02:30:55 437.125/150
ITAMSAT 1 25 May 02:30:06 02:34:27 27° 93° (E) 02:38:52 435.822/435.867
ISS 25 May 02:41:41 02:44:49 41° 347° (NNW) 02:47:56 145.825
ITUPSAT 1 25 May 02:48:09 02:51:48 21° 269° (W) 02:55:22 437.325
DANDE 25 May 02:49:08 02:53:01 14° 286° (WNW) 02:56:10 436.750
Gurwin Techsat 1B 25 May 02:54:27 02:59:29 41° 97° (E) 03:04:30 435.225
BEESAT 25 May 02:57:54 03:01:06 17° 271° (W) 03:04:08 436.000
BEESAT 3 25 May 03:01:43 03:05:50 67° 51° (NE) 03:09:51 437.485
SWISSCUBE 25 May 03:07:03 03:09:27 13° 273° (W) 03:11:35 437.505
O/OREOS (USA 219) 25 May 03:07:45 03:11:02 20° 258° (WSW) 03:14:10 437.305
STARS 25 May 03:08:13 03:12:41 87° 256° (WSW) 03:17:10 437.465
MOZHAYETS 4 25 May 03:13:27 03:16:17 17° 62° (ENE) 03:19:16
AO-7 25 May 03:16:52 03:21:24 16° 84° (E) 03:26:27 29.400- 29.500
GONETS M04 25 May 03:18:38 03:23:06 14° 287° (WNW) 03:27:01
AIST 2 25 May 03:23:19 03:27:11 33° 43° (NE) 03:31:01 435.215
PCSat 25 May 03:25:31 03:30:10 28° 319° (NW) 03:34:47 145.827
KKS-1 25 May 03:35:41 03:39:42 31° 265° (W) 03:43:41 437.445
BEESAT 2 25 May 03:47:36 03:51:39 55° 238° (WSW) 03:55:36 435.950
Oscar 19 25 May 04:00:59 04:04:41 19° 300° (WNW) 04:08:12 437.125/150
JAS-2 25 May 04:04:52 04:09:30 32° 95° (E) 04:14:11 435.910
SO-50 25 May 04:05:00 04:09:39 61° 123° (ESE) 04:14:28 436.795
ITAMSAT 1 25 May 04:09:11 04:14:10 46° 292° (WNW) 04:19:08 435.822/435.867
VERMONT LUNAR 25 May 04:09:28 04:12:02 22° 169° (S) 04:14:37 437.305
Cosmos 2499 25 May 04:12:56 04:18:34 25° 276° (W) 04:24:01 435.465 / 435.565
PHONESAT 2.4 25 May 04:13:16 04:15:11 14° 157° (SSE) 04:17:08 2401.200-2431.200
HORYU 2 25 May 04:15:47 04:20:01 42° 98° (E) 04:24:15 437.375
ISS 25 May 04:18:39 04:21:41 35° 7° (N) 04:24:45 145.825
Gurwin Techsat 1B 25 May 04:34:42 04:39:21 31° 295° (WNW) 04:43:56 435.225
BEESAT 3 25 May 04:41:00 04:43:21 15° 248° (WSW) 04:45:32 437.485
CUBESAT XI-V 25 May 04:46:52 04:49:04 14° 60° (ENE) 04:51:28 437.345
MOZHAYETS 4 25 May 04:48:32 04:53:05 64° 259° (W) 04:57:39
AIST 2 25 May 05:01:55 05:05:47 34° 242° (WSW) 05:09:33 435.215
Cosmos 2491 25 May 05:07:01 05:13:34 23° 57° (ENE) 05:20:21 435.465 / 435.565
AO-7 25 May 05:07:28 05:15:52 74° 106° (ESE) 05:24:15 29.400- 29.500
STRAND 1 25 May 05:14:15 05:16:43 14° 57° (ENE) 05:19:24 437.568
PCSat 25 May 05:14:58 05:15:34 10° 344° (NNW) 05:16:04 145.827
PRISM 25 May 05:27:55 05:30:10 15° 62° (ENE) 05:32:34 437.425
VERMONT LUNAR 25 May 05:46:02 05:48:45 25° 186° (S) 05:51:28 437.305
SO-50 25 May 05:46:29 05:50:35 27° 324° (NW) 05:54:44 436.795
PHONESAT 2.4 25 May 05:49:41 05:52:41 27° 174° (S) 05:55:41 2401.200-2431.200
JAS-2 25 May 05:50:00 05:54:45 35° 294° (WNW) 05:59:24 435.910
M-CUBED/EXP-1 PRIME 25 May 05:52:38 05:55:50 22° 61° (ENE) 05:58:56 437.505
HORYU 2 25 May 05:52:56 05:56:27 23° 296° (WNW) 05:59:52 437.375
ISS 25 May 05:55:05 05:58:22 89° 26° (NNE) 06:01:39 145.825
AUBIESAT-1 25 May 06:02:40 06:05:59 24° 62° (ENE) 06:09:10 437.475
YUBILEINY 25 May 06:06:36 06:11:21 17° 75° (ENE) 06:16:35 435.215
CUTE-I 25 May 06:06:57 06:10:43 20° 89° (E) 06:14:39 437.470
CUBESAT XI-V 25 May 06:21:19 06:25:55 83° 258° (WSW) 06:30:35 437.345
Cubesat XI-IV 25 May 06:26:22 06:30:58 29° 94° (E) 06:35:38 437.490
STRAND 1 25 May 06:50:08 06:55:14 85° 75° (ENE) 07:00:23 437.568
AO-7 25 May 07:00:58 07:08:06 32° 307° (NW) 07:15:04 29.400- 29.500
PRISM 25 May 07:01:10 07:05:13 61° 259° (W) 07:09:16 437.425
Cosmos 2491 25 May 07:03:02 07:11:56 89° 81° (E) 07:20:46 435.465 / 435.565
AIST 1 25 May 07:06:47 07:10:09 22° 69° (ENE) 07:13:37
BRITE-PL 25 May 07:22:47 07:24:44 12° 81° (E) 07:27:01 437.365/2234.400
VERMONT LUNAR 25 May 07:23:42 07:25:22 13° 202° (SSW) 07:27:00 437.305
M-CUBED/EXP-1 PRIME 25 May 07:26:32 07:30:33 39° 256° (WSW) 07:34:16 437.505
PHONESAT 2.4 25 May 07:27:25 07:30:20 25° 190° (S) 07:33:13 2401.200-2431.200
SO-50 25 May 07:31:25 07:32:49 11° 347° (NNW) 07:34:09 436.795
ISS 25 May 07:32:17 07:34:26 16° 223° (SW) 07:36:31 145.825
